Waarnemingen

Advertentie
Mijn weer
Llerena, Spanje (8336): temperatuur & dauwpunt: 10.12.2017 19:00:00 - 16.12.2017 19:00:00 (CET)Llerena, Spanje (8336): windsnelheid & windstoten: 10.12.2017 19:00:00 - 16.12.2017 19:00:00 (CET)Llerena, Spanje (8336): windrichting: 10.12.2017 19:00:00 - 16.12.2017 19:00:00 (CET)Llerena, Spanje (8336): luchtdruk: 10.12.2017 19:00:00 - 16.12.2017 19:00:00 (CET)Llerena, Spanje (8336): zicht: 10.12.2017 19:00:00 - 16.12.2017 19:00:00 (CET)Llerena, Spanje (8336): Zonneschijnduur: 10.12.2017 19:00:00 - 16.12.2017 19:00:00 (CET)Llerena, Spanje (8336): neerslag: 10.12.2017 19:00:00 - 16.12.2017 19:00:00 (CET)
Datum & Tijd tt [°C] td [°C] ff [km/u] ff [kn] fx [km/u] fx [kn] dd ppp [hPa] vv [km] sd [min] rr [mm]
16.12.2017 19:00:00 - - - - - - - - - - -
16.12.2017 18:00:00 7,5 0,4 11 6 25 14 NNO 1023,5 20 46 0,0
16.12.2017 17:00:00 9,0 0,2 11 6 28 15 NNO 1022,6 20 60 0,0
16.12.2017 16:00:00 9,6 1,1 10 6 28 15 NO 1021,9 20 60 0,0
16.12.2017 15:00:00 9,3 1,3 11 6 24 13 NO 1021,9 20 60 0,0
16.12.2017 14:00:00 8,4 1,5 10 6 21 12 NNO 1022,6 20 60 0,0
16.12.2017 13:00:00 7,7 2,5 10 5 19 10 NO 1022,9 20 60 -
16.12.2017 12:00:00 7,0 2,5 9 5 18 10 NO 1023,4 20 60 0,0
16.12.2017 11:00:00 5,6 1,7 8 4 16 9 NNO 1023,4 20 60 0,0
16.12.2017 10:00:00 3,7 1,5 5 3 12 7 NNO 1022,6 20 59 0,0
16.12.2017 09:00:00 1,6 0,4 2 1 12 6 NO 1022,4 20 20 0,0
16.12.2017 08:00:00 1,5 0,0 5 3 16 8 NNO 1021,7 20 0 0,0
16.12.2017 07:00:00 2,1 0,4 9 5 26 14 NNO 1020,6 20 0 -
16.12.2017 06:00:00 2,3 0,9 8 5 20 11 NO 1019,7 20 0 0,2
16.12.2017 05:00:00 2,0 0,9 5 3 19 11 NNO 1019,4 20 0 0,0
16.12.2017 04:00:00 2,3 1,1 9 5 23 12 N 1019,0 20 0 0,0
16.12.2017 03:00:00 2,9 1,5 11 6 27 14 N 1018,0 20 0 0,0
16.12.2017 02:00:00 3,7 1,9 13 7 24 13 N 1017,6 20 0 0,0
16.12.2017 01:00:00 4,6 2,9 10 6 27 15 NNW 1017,8 20 0 -
16.12.2017 00:00:00 5,4 3,8 14 8 28 15 NNW 1017,0 20 0 0,0
15.12.2017 23:00:00 6,2 3,8 15 8 24 13 NNW 1016,4 20 0 0,0
15.12.2017 22:00:00 6,9 5,3 13 7 26 14 NNW 1015,9 20 0 0,0
15.12.2017 21:00:00 8,1 6,5 19 10 40 22 NW 1015,6 20 0 0,0
15.12.2017 20:00:00 10,4 8,4 25 13 38 20 NW 1014,4 20 0 0,2
15.12.2017 19:00:00 12,0 11,1 16 9 36 19 W 1013,0 7 0 -
15.12.2017 18:00:00 12,1 11,1 18 10 37 20 W 1013,1 20 0 0,2
15.12.2017 17:00:00 12,5 11,1 22 12 41 22 W 1013,1 12 0 0,0
15.12.2017 16:00:00 13,0 11,1 21 11 43 23 W 1013,1 20 0 0,0
15.12.2017 15:00:00 12,9 10,8 29 16 45 25 W 1013,2 20 0 0,2
15.12.2017 14:00:00 12,8 11,0 29 15 42 23 W 1013,8 20 0 0,0
15.12.2017 13:00:00 12,8 11,2 21 11 42 23 W 1015,1 20 2 -
15.12.2017 12:00:00 12,1 11,3 24 13 42 23 W 1016,2 20 0 0,0
15.12.2017 11:00:00 11,5 11,0 21 12 36 20 W 1016,7 20 0 0,0
15.12.2017 10:00:00 11,1 10,6 18 10 32 17 WZW 1016,9 1,5 0 0,0
15.12.2017 09:00:00 10,8 10,2 17 9 26 14 W 1017,1 0,4 0 0,0
15.12.2017 08:00:00 10,4 9,8 20 11 29 16 WZW 1016,6 0,6 0 0,0
15.12.2017 07:00:00 10,1 9,5 16 9 22 12 W - - 0 -
15.12.2017 06:00:00 9,9 9,2 15 8 27 15 W 1017,7 13 0 0,4
15.12.2017 05:00:00 10,0 9,2 18 10 29 16 WNW 1018,4 5 0 0,2
15.12.2017 04:00:00 10,0 9,0 17 9 27 14 WNW 1019,0 18 0 0,0
15.12.2017 03:00:00 10,0 9,0 16 9 32 17 WNW 1019,1 20 0 0,0
15.12.2017 02:00:00 10,3 9,7 23 12 32 17 W 1019,4 20 0 0,4
15.12.2017 01:00:00 10,3 9,7 18 10 31 17 W 1019,6 4,4 0 -
15.12.2017 00:00:00 10,3 9,6 16 9 33 18 W 1020,4 9 0 0,0
14.12.2017 23:00:00 10,4 9,7 19 10 31 17 W 1020,8 6 0 0,0
14.12.2017 22:00:00 10,5 9,7 17 9 31 17 W 1021,4 20 0 0,0
14.12.2017 21:00:00 10,6 9,8 16 8 29 16 W 1021,8 18 0 0,0
14.12.2017 20:00:00 10,7 9,9 19 10 29 16 W 1021,9 7 0 0,4
14.12.2017 19:00:00 10,7 9,8 18 10 29 15 WZW 1021,6 3,7 0 -
14.12.2017 18:00:00 10,8 9,7 16 9 30 16 W 1022,0 4,9 0 0,0
14.12.2017 17:00:00 11,3 9,9 17 9 34 18 W 1022,0 20 0 0,0
14.12.2017 16:00:00 11,2 9,9 21 11 35 19 W 1022,0 4,4 0 0,0
14.12.2017 15:00:00 10,9 9,7 18 10 25 13 W 1022,7 17 0 0,2
14.12.2017 14:00:00 11,1 9,8 17 9 26 14 WZW 1023,8 4,4 0 0,0
14.12.2017 13:00:00 10,5 9,6 16 8 28 15 WZW 1024,9 15 3 -
14.12.2017 12:00:00 10,0 9,2 19 11 25 14 WZW 1026,0 20 10 0,0
14.12.2017 11:00:00 9,0 8,4 16 8 25 13 WZW 1026,8 3,3 0 0,0
14.12.2017 10:00:00 8,4 7,8 15 8 22 12 WZW 1026,8 1,7 0 0,0
14.12.2017 09:00:00 7,9 7,1 16 9 31 17 WZW 1026,3 6 0 0,0
14.12.2017 08:00:00 7,2 6,2 15 8 21 12 WZW 1026,8 2,2 0 0,0
14.12.2017 07:00:00 7,0 5,6 13 7 21 11 WZW 1027,0 20 0 -
14.12.2017 06:00:00 6,8 3,9 10 5 16 9 W 1027,3 20 0 0,0
14.12.2017 05:00:00 6,9 2,9 12 7 16 9 WZW 1027,6 20 0 0,0
14.12.2017 04:00:00 7,0 3,0 9 5 15 8 W 1027,8 20 0 0,0
14.12.2017 03:00:00 6,7 3,2 10 5 14 8 WZW 1028,4 20 0 0,0
14.12.2017 02:00:00 7,5 4,3 10 5 16 9 W 1028,2 20 0 0,0
14.12.2017 01:00:00 7,6 4,3 8 5 14 7 W 1028,6 20 0 -
14.12.2017 00:00:00 7,9 3,8 8 4 11 6 WNW 1028,9 20 0 0,0
13.12.2017 23:00:00 6,9 2,9 3 2 11 6 WZW 1029,6 20 0 0,0
13.12.2017 22:00:00 6,3 2,3 5 3 10 6 WNW 1029,5 20 0 0,0
13.12.2017 21:00:00 6,7 2,1 8 5 13 7 NNW 1029,4 20 0 0,0
13.12.2017 20:00:00 7,8 0,6 7 4 13 7 WNW 1029,0 20 0 0,0
13.12.2017 19:00:00 8,2 1,9 7 4 13 7 WNW 1028,5 20 0 -
13.12.2017 18:00:00 10,2 1,5 7 4 27 15 NW 1027,8 20 45 0,0
13.12.2017 17:00:00 12,1 -2,2 10 5 27 15 NW 1027,4 20 60 0,0
13.12.2017 16:00:00 13,2 -2,0 13 7 24 13 NW 1026,9 20 60 0,0
13.12.2017 15:00:00 12,3 -1,7 6 3 24 13 NNW 1027,4 20 60 0,0
13.12.2017 14:00:00 12,1 -1,4 6 3 16 8 WNW 1027,6 20 60 0,0
13.12.2017 13:00:00 10,4 0,9 4 2 19 10 N 1029,0 20 60 -
13.12.2017 12:00:00 9,3 1,7 8 5 19 11 NNO 1030,2 20 60 0,0
13.12.2017 11:00:00 8,3 0,0 6 3 21 11 NO 1030,2 20 60 0,0
13.12.2017 10:00:00 6,6 -1,4 12 7 19 10 ZZW 1029,0 20 60 0,0
13.12.2017 09:00:00 3,1 -1,0 4 2 18 10 WZW 1029,7 20 23 0,0
13.12.2017 08:00:00 1,8 -1,0 8 4 16 9 OZO 1029,9 20 0 0,0
13.12.2017 07:00:00 2,6 -0,7 5 3 16 9 OZO 1029,6 20 0 -
13.12.2017 06:00:00 2,6 -0,7 12 6 18 10 O 1028,8 20 0 0,0
13.12.2017 05:00:00 2,7 -0,5 10 5 16 8 OZO 1028,6 20 0 0,0
13.12.2017 04:00:00 1,9 -0,5 9 5 13 7 ZO 1028,7 20 0 0,0
13.12.2017 03:00:00 2,5 -0,3 8 4 18 10 OZO 1028,3 20 0 0,0
13.12.2017 02:00:00 3,0 -0,3 7 4 17 9 ZO 1027,6 20 0 0,0
13.12.2017 01:00:00 2,9 -0,3 7 4 16 9 ZO 1027,4 20 0 -
13.12.2017 00:00:00 3,3 0,4 6 4 16 9 NO 1027,3 20 0 0,0
12.12.2017 23:00:00 3,2 0,6 4 2 16 9 N 1026,6 20 0 0,0
12.12.2017 22:00:00 3,5 0,6 6 4 17 9 NNO 1025,8 20 0 0,0
12.12.2017 21:00:00 3,9 0,9 5 3 15 8 N 1025,3 17 0 0,0
12.12.2017 20:00:00 3,9 0,9 6 3 11 6 NW 1024,6 20 0 0,0
12.12.2017 19:00:00 4,6 1,3 8 4 15 8 NW 1023,5 20 0 -
12.12.2017 18:00:00 6,0 0,6 9 5 19 10 N 1022,5 20 45 0,0
12.12.2017 17:00:00 7,2 0,2 14 8 23 12 NNW 1021,6 20 60 0,0
12.12.2017 16:00:00 7,8 0,0 11 6 24 13 N 1020,8 20 60 0,0
12.12.2017 15:00:00 7,8 1,5 11 6 22 12 N 1019,8 20 60 0,0
12.12.2017 14:00:00 7,3 0,9 11 6 22 12 N 1020,2 20 60 0,0
12.12.2017 13:00:00 6,4 1,1 10 6 24 13 N 1020,2 17 60 -
12.12.2017 12:00:00 5,4 0,6 9 5 21 11 N 1020,4 20 60 0,0
12.12.2017 11:00:00 3,9 0,0 8 4 16 8 N 1020,2 20 60 0,0
12.12.2017 10:00:00 2,7 0,0 4 2 13 7 WNW 1019,6 20 60 0,0
12.12.2017 09:00:00 0,5 -1,0 4 2 13 7 WNW 1019,2 20 21 0,0
12.12.2017 08:00:00 0,1 -1,4 5 3 14 7 NNW 1019,0 20 0 0,0
12.12.2017 07:00:00 0,5 -1,2 8 4 15 8 N 1017,3 20 0 -
12.12.2017 06:00:00 0,7 -1,0 8 4 19 11 NNW 1016,1 20 0 0,0
12.12.2017 05:00:00 1,1 -1,0 9 5 32 18 NNW 1015,3 20 0 0,0
12.12.2017 04:00:00 1,7 -0,5 19 11 34 18 NNW 1014,3 20 0 0,0
12.12.2017 03:00:00 2,0 0,0 16 9 26 14 NNW 1013,1 20 0 0,0
12.12.2017 02:00:00 2,5 0,0 9 5 34 18 NNW 1012,3 20 0 0,0
12.12.2017 01:00:00 3,1 1,1 16 9 34 19 NNW 1011,6 20 0 -
12.12.2017 00:00:00 3,8 2,3 22 12 34 18 NNW 1010,3 20 0 0,0
11.12.2017 23:00:00 4,5 3,2 19 11 36 20 NW 1009,4 20 0 0,0
11.12.2017 22:00:00 5,0 3,8 24 13 36 19 WNW 1008,4 20 0 0,0
11.12.2017 21:00:00 4,5 3,0 14 8 30 16 W 1007,7 20 0 0,0
11.12.2017 20:00:00 4,4 2,7 14 7 27 15 W 1006,8 20 0 0,0
11.12.2017 19:00:00 5,0 2,5 21 11 57 31 W 1005,7 20 0 -
11.12.2017 18:00:00 6,6 4,5 23 12 45 24 W 1004,3 20 14 0,4
11.12.2017 17:00:00 7,9 4,8 26 14 44 24 W 1003,4 7 16 0,8
11.12.2017 16:00:00 9,1 3,2 28 15 44 24 W 1002,2 20 54 0,0
11.12.2017 15:00:00 9,1 4,3 25 13 45 24 W 1002,3 20 42 0,0
11.12.2017 14:00:00 8,5 3,6 26 14 45 25 W 1002,9 20 49 0,0
11.12.2017 13:00:00 8,1 3,8 25 14 44 24 W 1003,3 20 33 -
11.12.2017 12:00:00 7,2 4,3 23 13 41 22 W 1003,8 20 40 0,0
11.12.2017 11:00:00 6,1 4,5 24 13 39 21 W 1004,1 20 31 0,0
11.12.2017 10:00:00 5,0 3,8 23 12 42 23 W 1003,2 20 0 0,0
11.12.2017 09:00:00 5,1 4,3 26 14 41 22 W 1001,9 20 0 0,2
11.12.2017 08:00:00 4,8 3,8 29 16 55 30 WNW 1000,8 19 0 1,4
11.12.2017 07:00:00 - - - - - - - - - - -
11.12.2017 06:00:00 5,2 3,8 44 24 67 36 NW 1000,2 11 0 4,4
11.12.2017 05:00:00 8,6 7,4 32 17 69 37 NW 998,6 11 0 4,2
11.12.2017 04:00:00 11,6 10,5 37 20 64 35 ZW 996,3 6 0 2,4
11.12.2017 03:00:00 11,4 9,9 46 25 71 38 ZW 998,4 6 0 1,2
11.12.2017 02:00:00 11,1 9,2 44 24 67 36 ZW 1000,7 12 0 0,4
11.12.2017 01:00:00 11,6 9,2 34 18 61 33 ZW 1003,4 20 0 -
11.12.2017 00:00:00 11,3 9,0 37 20 61 33 ZW 1005,3 20 0 0,0
10.12.2017 23:00:00 10,7 9,2 38 20 56 30 ZW 1006,8 20 0 0,0
10.12.2017 22:00:00 10,4 8,8 35 19 53 28 ZW 1008,8 20 0 0,2
10.12.2017 21:00:00 11,1 8,8 30 16 50 27 ZW 1010,0 20 0 0,0
10.12.2017 20:00:00 11,7 7,0 23 12 39 21 ZW 1011,3 20 0 0,0
10.12.2017 19:00:00 12,0 7,1 26 14 39 21 ZW 1012,9 20 0 -

tt = temperatuur
td = dauwpunt
ff = windsnelheid
fx = windstoten
dd = windrichting
ppp = luchtdruk
vv = zicht
sd = Zonneschijnduur
rr = neerslag

Weerstations in de omgeving